OpenBCM V2.0.3 (Linux)

Packet Radio Mailbox

IZ3LSV

[San Dona' di P. JN]

 Login: GUEST





  
I0OJJ  > AMSAT    12.09.26 18:25l 322 Lines 15335 Bytes #999 (0) @ WW
BID : 62W_IR0EQ
Read: GUEST
Subj: 2Line Orbital Elements
Path: IZ3LSV<IW8PGT<LU4ECL<LU1DBQ<IR0EQ
Sent: 260910/0027z @:IR0EQ.ITA.EU [Rome] $:62W_IR0EQ

>From i0ojj@rgate.ampr.org Thu Sep 10 02:27:49 2026
Received: from rgate.ampr.org by rgate.ampr.org (JNOS2.0q.1) with SMTP
	id AA7880 ; Thu, 10 Sep 2026 02:27:49 +0200
Received: by rgate.ampr.org with SMTP
	id AA7877 ; Thu, 10 Sep 2026 02:27:02 +0200
Message-Id: <7878@rgate.ampr.org>
>From: i0ojj@rgate.ampr.org

SB KEPS @ AMSAT  $ORB26253.1
2Line Orbital Elements 26253.AMSAT

QST de W1STR

AMSAT Orbital Elements for Amateur Satellites in TLE Format
>From Orbital Analysis Office
New England Sci-Tech STEM Education Center
Natick MA September 10, 2026
To all radio amateurs


These element sets describe the orbits of various satellites 
in use by the amateur radio community. For details see:
www.amsat.org/keplerian-elements-formats/

A daily update of element sets is available at:
www.amsat.org/tle/daily-bulletin.txt
or without bulletin text:
www.amsat.org/tle/dailytle.txt


AO-07
1 07530U 74089B   26252.58213809 -.00000025  00000-0  13387-3 0  9999
2 07530 101.9922 266.7113 0012086 331.7814 149.0937 12.53699514371099
UO-11
1 14781U 84021B   26252.45161111  .00001155  00000-0  12254-3 0  9992
2 14781  97.8159 217.1381 0006013 265.3491  94.7040 14.90978939269689
LO-19
1 20442U 90005G   26252.60139546  .00000057  00000-0  37256-4 0  9996
2 20442  98.8829 276.7231 0010822 322.9737  37.0699 14.34142747914490
AO-27
1 22825U 93061C   26252.46730142  .00000045  00000-0  34184-4 0  9995
2 22825  98.6806 319.8182 0007866 206.0743 154.0045 14.30960131719058
FO-29
1 24278U 96046B   26252.52057000 -.00000016  00000-0  21434-4 0  9990
2 24278  98.5173  89.8315 0349000 237.4942 119.2027 13.53277795484578
GO-32
1 25397U 98043D   26252.56628060  .00000034  00000-0  34830-4 0  9999
2 25397  99.0148 247.4826 0001310  23.2572 336.8665 14.24441975463346
ISS
1 25544U 98067A   26252.43386541  .00007076  00000-0  13619-3 0  9994
2 25544  51.6299 243.1337 0004949 117.3535 242.7957 15.49058283584815
NO-44
1 26931U 01043C   26252.60159263  .00000048  00000-0  48725-4 0  9990
2 26931  67.0522  25.9309 0005729 272.0616  87.9830 14.31982154302536
SO-50
1 27607U 02058C   26251.36239561  .00000751  00000-0  10606-3 0  9997
2 27607  64.5508 231.6104 0072351 247.2210 112.1242 14.83200645276792
CO-55
1 27844U 03031E   26252.26311956  .00000189  00000-0  10086-3 0  9998
2 27844  98.6772 259.7780 0008578 306.0990  53.9394 14.24378637203642
RS-22
1 27939U 03042A   26252.62300358  .00000361  00000-0  63762-4 0  9991
2 27939  98.3483  79.3907 0011517   7.4492  82.2588 14.73591633227986
CO-65
1 32785U 08021C   26252.48466721  .00003901  00000-0  24317-3 0  9994
2 32785  97.8366 235.7407 0010544  99.9572 260.2847 15.10124469997916
CO-66
1 32791U 08021J   26251.95256329  .00020153  00000-0  58795-3 0  9998
2 32791  97.7561 254.0427 0003679  53.4755 306.6826 15.35380659   126
RS-30
1 32953U 08025A   26252.60047645  .00000003  00000-0 -50680-4 0  9993
2 32953  82.5041 302.9416 0020623 126.0239 234.2756 12.43182420830181
SRMSAT
1 37841U 11058D   26252.35431521  .00000363  00000-0  53085-4 0  9996
2 37841  19.9715 270.0178 0011943  50.7498  78.1383 14.11591285769721
ZACUBE-1
1 39417U 13066B   26252.44590084  .00004608  00000-0  35259-3 0  9996
2 39417  97.8113 215.2070 0040405 331.4007  28.5000 15.01761363693379
Delfi-N3xt
1 39428U 13066N   26252.48049844  .00004820  00000-0  41339-3 0  9997
2 39428  97.8302 172.7470 0071209 286.7915  72.5503 14.96038935687227
GOMX-1
1 39430U 13066Q   26252.61539933  .00001810  00000-0  27548-3 0  9990
2 39430  97.6443  87.7576 0128224 165.5022 194.9920 14.69679690682315
LO-74
1 39440U 13066AA  26252.58502310  .00002331  00000-0  21576-3 0  9990
2 39440  97.8967 201.9793 0058430 106.9209 253.8428 14.94234152689590
AO-73
1 39444U 13066AE  26252.47990396  .00006284  00000-0  38029-3 0  9999
2 39444  97.8363 225.7912 0033683 277.2421  82.4979 15.10530362692381
DTUSAT-2
1 40030U 14033W   26252.55286894  .00005642  00000-0  29782-3 0  9990
2 40030  98.0915 255.7231 0006410 316.8985  43.1743 15.15965224665466
LILACSAT-2
1 40908U 15049K   26252.62697367  .00015533  00000-0  24062-3 0  9997
2 40908  97.4573 292.8042 0004703 313.3760  46.7102 15.54115429608856
Lapan A3
1 41603U 16040E   26252.63661648  .00002569  00000-0  81347-4 0  9991
2 41603  97.1557 246.0664 0012095  75.5129 284.7456 15.33567041567755
CAS-2T
1 41847U 16066G   26252.45356390  .00000658  00000-0  10206-3 0  9996
2 41847  98.3761 327.2213 0340258 233.7171 123.2148 14.44832394516966
TechnoSat
1 42829U 17042E   26252.41221851  .00002014  00000-0  14425-3 0  9996
2 42829  97.4388  46.9455 0018003 160.9932 199.1971 15.05374720499374
AO-91
1 43017U 17073E   26252.58332198  .00007701  00000-0  32669-3 0  9993
2 43017  97.4569 118.0750 0148517  37.4294 323.7170 15.13830861478158
S-Net D
1 43186U 18014G   26252.16587426  .00004143  00000-0  21086-3 0  9994
2 43186  97.5263 156.4274 0009880  87.6682 272.5683 15.17335450471499
S-Net B
1 43187U 18014H   26252.50877397  .00003619  00000-0  18479-3 0  9991
2 43187  97.5268 156.7571 0010525  82.7353 277.5076 15.17305605471543
S-Net A
1 43188U 18014J   26252.16429376  .00004046  00000-0  20596-3 0  9992
2 43188  97.5279 156.6400 0010409  84.3475 275.8945 15.17343537471496
S-Net C
1 43189U 18014K   26252.18342109  .00003814  00000-0  19453-3 0  9995
2 43189  97.5296 156.7464 0011735  78.0323 282.2225 15.17294029470046
Ten-Koh
1 43677U 18084G   26252.53545207  .00001205  00000-0  93885-4 0  9991
2 43677  98.0747  88.4671 0009110 184.5267 175.5876 15.03232327428834
PO-101
1 43678U 18084H   26252.58823424  .00001393  00000-0  11508-3 0  9996
2 43678  98.1186  92.5127 0011158 245.9385 114.0670 15.00713380428877
QO-100
1 43700U 18090A   26252.59068833  .00000123  00000-0  00000-0 0  9997
2 43700   0.0180 144.2839 0002542  60.4795  22.3051  1.00272160 28529
MinXSS-2
1 43758U 18099A   26251.77063182  .00050106  00000-0  80694-3 0  9996
2 43758  97.4462 330.8307 0005065 318.3683  41.7184 15.52792566427076
AO-95
1 43770U 18099N   26252.12350058  .00012007  00000-0  43729-3 0  9997
2 43770  97.4309 312.1182 0009504  58.6928 301.5241 15.28314978426038
SNUSat 2
1 43782U 18099AA  26252.59497956  .00005690  00000-0  24489-3 0  9992
2 43782  97.3984 304.7115 0009924   9.3852 350.7568 15.22969823425875
SnugLite
1 43784U 18099AC  26251.70507725  .00011544  00000-0  41548-3 0  9992
2 43784  97.3795 305.2213 0002855  29.9289 330.2114 15.28750387426072
ITASat 1
1 43786U 18099AE  26252.57565936  .00005375  00000-0  25233-3 0  9996
2 43786  97.3954 302.4198 0013665  62.1580 298.1038 15.19968743425721
EAGLET 1
1 43790U 18099AJ  26252.36382048  .00003100  00000-0  17660-3 0  9998
2 43790  97.4157 299.7970 0012397  59.6297 300.6159 15.13477156425062
ESEO
1 43792U 18099AL  26252.58852670  .00001304  00000-0  97281-4 0  9999
2 43792  97.3908 286.3468 0012985  49.6905 310.5454 15.04450690424497
JO-97
1 43803U 18099AX  26252.12843580  .00018767  00000-0  53450-3 0  9992
2 43803  97.4059 315.3667 0004467 345.4135  14.6979 15.36140689426507
Suomi 100
1 43804U 18099AY  26252.15360900  .00012244  00000-0  42114-3 0  9995
2 43804  97.4114 312.3024 0008964 352.4734   7.6370 15.30184677426251
ISAT
1 43879U 18111D   26252.07204117  .00427550  71701-4  13494-2 0  9998
2 43879  97.5783 195.0541 0007287 121.8980 238.3003 15.91250797424375
UWE-4
1 43880U 18111E   26252.08417159  .00044588  00000-0  75717-3 0  9996
2 43880  97.5818 184.6564 0008190  40.5646 319.6215 15.51310052423762
Prox-1
1 44339U 19036A   26252.35265366  .00011194  00000-0  10393-2 0  9999
2 44339  23.9944 271.2318 0004924 291.9614  68.0363 14.92371898386051
Taurus 1
1 44530U 19059C   26252.57183866  .00005491  00000-0  86577-3 0  9996
2 44530  98.6486  62.7288 0009189  51.9822 308.2212 14.72848597371066
TO-108
1 44881U 19093C   26252.58613032  .00000240  00000-0  33012-4 0  9991
2 44881  97.7471 322.7337 0013647 162.8872 197.2807 14.86626503363955
RS-44
1 44909U 19096E   26252.59521953  .00000033  00000-0  94767-4 0  9990
2 44909  82.5180 283.6210 0216553 307.2094  50.9415 12.79749243313145
SALSAT
1 46495U 20068K   26252.55956056  .00006190  00000-0  21022-3 0  9998
2 46495  97.8885 260.8468 0009734  17.2842 342.8727 15.30856340328265
CSS (TIANHE-1)
1 48274U 21035A   26252.20644546  .00018630  00000-0  22982-3 0  9998
2 48274  41.4683 171.9230 0002510 266.7428  93.3123 15.59731104306285
TeikyoSat 4
1 49396U 21102B   26252.56523696  .00001318  00000-0  85359-4 0  9993
2 49396  97.3637 278.7644 0012166  10.8615 349.2876 15.09757910265458
Z-Sat
1 49399U 21102E   26252.60848332  .00002878  00000-0  14107-3 0  9992
2 49399  97.3283 285.3754 0015111 317.3937  42.6125 15.18822376266258
KOSEN 1
1 49402U 21102H   26252.58887756  .00005897  00000-0  21901-3 0  9991
2 49402  97.3121 293.1359 0011489 267.9051  92.0874 15.27876930266900
HO-113
1 50466U 21131B   26252.60517729  .00000274  00000-0  98196-4 0  9993
2 50466  98.4975 344.5356 0003753 188.2621 171.8507 14.41421260247277
SNUGLITE 2
1 52899U 22065F   26252.62027131  .00000611  00000-0  12452-3 0  9992
2 52899  98.2324  37.3657 0008620 115.4128 244.7968 14.64477511223357
UmKA 1 (RS40S)
1 57172U 23091G   26252.55239509  .00004222  00000-0  18973-3 0  9993
2 57172  97.4973 310.9356 0012541 177.5559 182.5741 15.21627939176830
CubeBel-2 (EU11S)
1 57175U 23091K   26252.54599182  .00009529  00000-0  32048-3 0  9995
2 57175  97.4976 316.5923 0009786 167.2996 192.8493 15.30978724177207
RS-38S
1 57189U 23091Z   26252.57294604  .00013966  00000-0  36968-3 0  9999
2 57189  97.5024 323.8662 0008052 124.0838 236.1172 15.38463454177651
SONATE-2
1 59112U 24043Q   26252.38458220  .00046809  00000-0  46978-3 0  9994
2 59112  97.5606  48.4166 0005209 245.6069 114.4647 15.65358091141039
